[[{"header":{"parameterUnit":"m.s-1","parameterCategory":1,"la1":30.2991,"la2":30.254,"lo1":-89.0895,"lo2":-89.0444,"dy":0.0017,"dx":0.0017,"nx":28,"ny":28,"refTime":"2024-07-08T21:00:00:Z","depth":0,"parameterNumber":2,"parameterNumberName":"U-component_of_WINDS"},"data":[0,0,0,0,0,0,0,0,0,0,0,0,0,0,0,0,0,0,0,0,0,0,0,0,0,0,0,0,0,0,0,0,0,0,0,0,0,0,0,0,0,0,0,0,0,0,0,0,0,0,0,0,0,0,0,0,0,0,4.855,4.8552,0,4.8673,4.8675,4.8676,4.8612,4.8609,4.8606,4.8603,4.8727,4.8734,4.874,0,0,0,0,0,0,0,0,0,0,0,0,0,4.8256,4.8262,4.855,4.8552,4.8553,4.8673,4.8675,4.8676,4.8613,4.8609,4.8605,4.8601,4.8725,4.8733,4.874,0,0,0,0,0,0,0,0,0,0,0,0,0,4.8382,4.8264,4.855,4.8536,4.8536,4.8673,4.8675,4.8677,4.8614,4.8609,4.8604,4.8599,4.8723,4.8732,4.8742,4.8898,0,0,4.8771,4.8775,0,0,0,0,0,0,0,0,4.8375,4.8393,4.8537,4.8537,4.8537,4.8622,4.8617,4.8751,4.8615,4.8584,4.8603,4.8597,4.8696,4.8708,4.8742,4.8904,4.891,4.8772,4.8777,4.8781,4.8784,0,0,0,0,0,0,0,4.8366,4.8387,4.8599,4.8539,4.8539,4.8522,4.8535,4.8642,4.8666,4.8587,4.8582,4.8598,4.8696,4.8733,4.8744,4.8911,4.8771,4.878,4.8786,4.8789,4.9203,4.9208,0,0,0,0,0,0,4.8359,4.838,4.8595,4.8602,4.8443,4.8532,4.8546,4.86,4.8665,4.867,4.8602,4.8594,4.8719,4.8733,4.8748,4.8932,4.8781,4.879,4.8796,4.9198,4.9205,4.921,0,0,0,0,0,0,4.8353,4.8378,4.859,4.849,4.8516,4.8542,4.8604,4.8605,4.8642,4.8676,4.868,4.8635,4.8715,4.8735,4.886,4.8935,4.8795,4.8803,4.9192,4.92,4.9207,4.9303,0,0,0,0,0,0,4.8344,4.8377,4.8438,4.8492,4.8522,4.8702,4.8608,4.8611,4.8659,4.865,4.8709,4.8714,4.8713,4.8846,4.887,4.8946,4.8811,4.9185,4.9196,4.9205,4.9294,4.9314,4.9331,0,0,0,0,0,4.8334,4.8461,4.8441,4.8467,4.8599,4.8706,4.8723,4.872,4.8665,4.8725,4.8747,4.8712,4.8924,4.886,4.8886,4.8966,4.918,4.9193,4.9204,4.9285,4.931,4.933,0,0,0,0,0,0,4.8415,4.8468,4.8447,4.8595,4.8646,4.8695,4.8771,4.8747,4.8814,4.8803,4.8796,4.881,4.8939,4.8966,4.8893,4.9118,4.9044,4.9061,4.9096,4.912,4.9138,4.9127,4.8819,0,0,0,0,0,4.845,4.8534,4.8575,4.8702,4.8729,4.8746,4.8793,4.8786,4.8839,4.886,4.8891,4.8943,4.902,4.9072,4.9146,4.9298,4.9307,4.9365,4.9384,4.9399,4.9413,4.949,4.9515,4.9249,4.9249,4.9249,0,0,4.8523,4.8563,4.8616,4.8719,4.8758,4.8843,4.8765,4.8859,4.8921,4.8874,4.8993,4.9018,4.9075,4.9213,4.9276,4.9239,4.9489,4.9414,4.9426,4.9432,4.9505,4.953,4.9552,4.9257,4.9256,4.9255,0,0,4.8699,4.8739,4.8847,4.8887,4.8947,4.8957,4.8983,4.9035,4.9049,4.9169,4.9134,4.9207,4.9343,4.9383,4.9422,4.961,4.9578,4.9634,4.973,4.9806,4.9826,4.9845,4.9907,4.993,4.9649,4.965,4.965,0,4.8782,4.891,4.8905,4.9001,4.9045,4.9007,4.9113,4.9153,4.9234,4.9264,4.9223,4.9389,4.9425,4.9569,4.9615,4.9649,4.9675,4.9626,4.9824,4.9842,4.9859,4.9919,4.9943,4.9656,4.9655,4.9654,4.9654,0,4.9007,4.9096,4.9175,4.9253,4.9307,4.9408,4.9416,4.9471,4.9459,4.9473,4.9593,4.9635,4.9714,4.9748,4.9739,4.9891,4.9865,4.9825,4.9748,4.9891,4.9946,4.997,4.9664,4.9662,4.966,4.9659,0,0,4.9237,4.9309,4.9338,4.937,4.9432,4.95,4.9598,4.9675,4.972,4.9777,4.9857,4.9971,4.9932,4.9976,4.9969,5.0036,5.0176,4.9986,4.9987,5.0016,5.0341,5.0368,5.0395,5.0157,5.0161,5.0165,5.0334,0,4.9414,4.9585,4.9582,4.974,4.9819,4.9782,4.9867,4.9913,4.9928,4.9996,5.0012,5.0091,5.0037,5.0062,5.0126,5.0146,5.0241,5.0134,5.0227,5.0231,5.021,5.0425,5.0456,5.0614,5.0357,5.036,5.0363,0,4.9643,4.9705,4.9871,4.9917,4.995,5.0026,5.0094,5.0162,5.0212,5.0217,5.0265,5.0247,5.0344,5.0267,5.0398,5.0325,5.0363,5.0378,5.0384,5.039,5.0303,5.0432,5.0665,5.0687,5.0398,5.0395,5.0393,0,4.9788,4.9914,5.0028,5.0058,5.0116,5.017,5.0196,5.0241,5.0287,5.0346,5.0375,5.0446,5.0484,5.0538,5.0538,5.0483,5.0669,5.0593,5.0673,5.0673,5.0712,5.0709,5.0949,5.0743,5.0743,5.0742,5.0742,0,4.9983,5.0085,5.0094,5.0164,5.0275,5.027,5.038,5.0401,5.0441,5.0513,5.0486,5.0554,5.0552,5.062,5.0622,5.0727,5.0746,5.0751,5.0749,5.0751,5.075,5.0773,5.0761,5.0749,5.0747,5.0746,5.0745,0,5.0164,5.0174,5.0295,5.034,5.0353,5.0433,5.0469,5.0534,5.0546,5.0637,5.0658,5.0676,5.0754,5.0761,5.0853,5.0853,5.0979,5.0968,5.0962,5.0958,5.1036,5.1027,5.1297,5.133,5.1107,5.1109,5.1111,0,5.0286,5.0363,5.0415,5.046,5.0489,5.0564,5.0609,5.0607,5.0655,5.0715,5.0772,5.0848,5.0908,5.1034,5.1054,5.1123,5.111,5.12,5.112,5.1118,5.1106,5.11,5.1105,5.1214,5.1217,5.1219,5.1221,0,5.05,5.05,5.0567,5.0635,5.069,5.0743,5.0793,5.0832,5.0834,5.0889,5.0968,5.1015,5.1106,5.118,5.1247,5.1272,5.1246,5.1246,5.1267,5.1268,5.1259,5.126,5.0999,5.1239,5.1237,5.1236,5.1235,5.1234,5.0652,5.0717,5.0762,5.0836,5.0873,5.0919,5.0981,5.1,5.1066,5.114,5.1134,5.122,5.1265,5.1351,5.1381,5.1447,5.1417,5.1449,5.1456,5.1463,5.1469,5.1252,5.146,5.146,5.1459,5.1459,5.1458,0,5.0861,5.0887,5.0956,5.1025,5.1082,5.1054,5.1106,5.1155,5.1232,5.1276,5.1334,5.1423,5.1493,5.1519,5.1587,5.1634,5.1624,5.1652,5.1646,5.1652,5.1495,5.1467,5.1659,5.1659,5.1659,5.1659,5.1659,5.1659,5.0976,5.1082,5.1088,5.1211,5.1236,5.132,5.1352,5.1393,5.1428,5.1528,5.1586,5.1602,5.1637,5.1707,5.177,5.1775,5.1799,5.1832,5.1832,5.1684,5.1664,5.1644,5.1618,5.1838,5.1839,5.1983,5.1984,5.1985]},{"header":{"parameterUnit":"m.s-1","parameterCategory":1,"la1":30.2991,"la2":30.254,"lo1":-89.0895,"lo2":-89.0444,"dy":0.0017,"dx":0.0017,"nx":28,"ny":28,"refTime":"2024-07-08T21:00:00:Z","depth":0,"parameterNumber":3,"parameterNumberName":"V-component_of_WINDS"},"data":[0,0,0,0,0,0,0,0,0,0,0,0,0,0,0,0,0,0,0,0,0,0,0,0,0,0,0,0,0,0,0,0,0,0,0,0,0,0,0,0,0,0,0,0,0,0,0,0,0,0,0,0,0,0,0,0,0,0,3.9497,3.9499,0,3.9645,3.9647,3.9648,3.9643,3.9641,3.9638,3.9637,3.9786,3.9791,3.9797,0,0,0,0,0,0,0,0,0,0,0,0,0,3.9206,3.9211,3.9497,3.9499,3.9501,3.9645,3.9647,3.9649,3.9643,3.964,3.9638,3.9636,3.9784,3.9791,3.9798,0,0,0,0,0,0,0,0,0,0,0,0,0,3.9341,3.9213,3.9497,3.9515,3.9518,3.9644,3.9647,3.9649,3.9644,3.964,3.9637,3.9634,3.9781,3.979,3.9799,3.9915,0,0,3.9826,3.9829,0,0,0,0,0,0,0,0,3.9333,3.9351,3.9511,3.9514,3.9518,3.9622,3.9599,3.9738,3.9644,3.9596,3.9636,3.9633,3.9734,3.9746,3.9781,3.9922,3.9928,3.9826,3.9832,3.9835,3.9838,0,0,0,0,0,0,0,3.9324,3.9345,3.9555,3.9513,3.9517,3.9515,3.9531,3.9625,3.968,3.96,3.96,3.9618,3.9735,3.9772,3.9784,3.993,3.9826,3.9834,3.9839,3.9843,4.0172,4.0175,0,0,0,0,0,0,3.9311,3.9337,3.9551,3.956,3.9416,3.9523,3.954,3.9592,3.9679,3.969,3.962,3.9617,3.9758,3.9774,3.9789,3.993,3.9835,3.9844,3.9849,4.0168,4.0172,4.0176,0,0,0,0,0,0,3.9305,3.933,3.9545,3.9449,3.9476,3.9531,3.9589,3.9596,3.9634,3.9694,3.9704,3.9648,3.9757,3.9777,3.9883,3.9935,3.9848,3.9856,4.0164,4.017,4.0174,4.0212,0,0,0,0,0,0,3.9296,3.9328,3.9374,3.945,3.9481,3.9638,3.9592,3.9602,3.9649,3.9646,3.9723,3.9733,3.9756,3.987,3.9892,3.9945,3.9863,4.016,4.0167,4.0173,4.0206,4.0218,4.0228,0,0,0,0,0,3.9286,3.9378,3.9376,3.9402,3.954,3.9641,3.9659,3.9684,3.9653,3.9699,3.9738,3.9731,3.9925,3.9881,3.9906,3.9962,4.0157,4.0165,4.0172,4.0202,4.0216,4.0227,0,0,0,0,0,0,3.9307,3.9389,3.9387,3.9507,3.9567,3.964,3.9698,3.9698,3.9767,3.9761,3.9788,3.9806,3.9912,3.9948,3.9897,4.0078,4.0037,4.005,4.0051,4.0065,4.0075,4.0064,3.987,0,0,0,0,0,3.9325,3.9402,3.9469,3.9568,3.9598,3.9643,3.9688,3.9702,3.9765,3.979,3.9837,3.9897,3.9971,4.002,4.0092,4.0211,4.0227,4.0262,4.0273,4.0281,4.0292,4.0355,4.0371,4.0202,4.0202,4.0201,0,0,3.9365,3.9419,3.9465,3.9574,3.9622,3.9699,3.9665,3.9748,3.9805,3.9802,3.9906,3.9942,4.0011,4.0123,4.0175,4.0156,4.0342,4.0291,4.0297,4.0304,4.0365,4.0381,4.0395,4.0207,4.0206,4.0205,0,0,3.9475,3.9525,3.9612,3.966,3.9734,3.9762,3.9783,3.9856,3.988,3.9984,3.9983,4.005,4.0179,4.0227,4.0269,4.0395,4.039,4.0418,4.0473,4.0534,4.0548,4.056,4.0603,4.0619,4.0428,4.0428,4.0428,0,3.9514,3.9632,3.9657,3.974,3.9787,3.9788,3.9876,3.9921,4.0014,4.0046,4.0023,4.0183,4.023,4.0353,4.0383,4.0417,4.0441,4.0409,4.0544,4.0556,4.0568,4.0609,4.0626,4.0431,4.0431,4.043,4.043,0,3.9675,3.9756,3.9818,3.9907,3.9961,4.0046,4.0082,4.0133,4.0142,4.0172,4.0277,4.0333,4.0415,4.0445,4.0455,4.0569,4.0555,4.0538,4.0497,4.0586,4.0626,4.0642,4.0435,4.0434,4.0433,4.0432,0,0,3.9804,3.9905,3.9927,3.9967,4.0047,4.0109,4.0193,4.0274,4.0316,4.038,4.045,4.0557,4.0541,4.0588,4.0603,4.0657,4.0751,4.0633,4.0635,4.0652,4.0879,4.0891,4.0909,4.0749,4.0752,4.0754,4.0873,0,3.9922,4.0073,4.0096,4.0228,4.0302,4.0303,4.0376,4.0431,4.0462,4.0528,4.0561,4.0636,4.061,4.0638,4.0692,4.0729,4.0797,4.072,4.0813,4.0816,4.0795,4.093,4.0943,4.1052,4.0888,4.0891,4.0893,0,4.008,4.0147,4.0286,4.0354,4.0386,4.0451,4.0526,4.059,4.0652,4.067,4.0722,4.0729,4.0814,4.077,4.0887,4.0834,4.0873,4.0896,4.0901,4.091,4.0859,4.0942,4.1088,4.1104,4.0918,4.0916,4.0914,0,4.0158,4.0284,4.0382,4.0416,4.0498,4.0544,4.058,4.0639,4.0686,4.0751,4.0781,4.0855,4.0895,4.0951,4.0978,4.0943,4.1092,4.1051,4.1108,4.1108,4.114,4.1137,4.1293,4.1166,4.1166,4.1165,4.1165,0,4.0287,4.0372,4.0418,4.0479,4.0573,4.0599,4.069,4.0725,4.0778,4.0844,4.0849,4.0911,4.0942,4.1008,4.1029,4.1122,4.114,4.1156,4.116,4.1155,4.1153,4.1181,4.1173,4.117,4.1169,4.1168,4.1167,0,4.0391,4.0426,4.0533,4.0601,4.062,4.0686,4.0744,4.0802,4.0831,4.0915,4.0936,4.0981,4.1059,4.1091,4.1186,4.12,4.1306,4.1305,4.1285,4.1286,4.1342,4.1336,4.152,4.1545,4.1403,4.1404,4.1405,0,4.047,4.0535,4.061,4.0655,4.0692,4.0765,4.0812,4.0839,4.0888,4.0962,4.1011,4.1089,4.1152,4.1276,4.1317,4.1389,4.1389,4.1449,4.14,4.1392,4.1388,4.1384,4.139,4.1457,4.1459,4.146,4.1461,0,4.0607,4.0621,4.0689,4.0763,4.0819,4.0879,4.0937,4.0973,4.1008,4.1062,4.1142,4.1191,4.1288,4.1364,4.1439,4.1474,4.1473,4.1476,4.1493,4.1488,4.1473,4.1481,4.1308,4.1472,4.1471,4.147,4.1469,4.1469,4.07,4.0757,4.0818,4.0894,4.094,4.0994,4.1051,4.1087,4.1154,4.1235,4.1247,4.1331,4.139,4.1489,4.1528,4.1593,4.1578,4.1603,4.1609,4.1615,4.1617,4.1463,4.1607,4.1607,4.1606,4.1606,4.1606,0,4.0836,4.0875,4.0944,4.1025,4.1084,4.1078,4.1141,4.119,4.1265,4.132,4.1382,4.1472,4.1546,4.1592,4.1666,4.1709,4.171,4.1727,4.1724,4.1732,4.1628,4.1605,4.1725,4.1725,4.1725,4.1725,4.1725,4.1725,4.0914,4.1009,4.103,4.1147,4.1186,4.1269,4.1305,4.1354,4.1398,4.1499,4.156,4.159,4.164,4.1718,4.1784,4.1796,4.1822,4.184,4.185,4.1752,4.174,4.1728,4.1707,4.1846,4.1846,4.1949,4.195,4.195]}]]